GFSSW_850_rhum_021.txt.gz
RH
38 37 38 37 33 28 23 20 18 16 15 14 21 17 21 13 14 17 19 26 24 22 12 12 15 17 17 18 15 14 14 15 12 13 12 8 8 8 14 16 26 27 40 44 38
39 39 40 39 36 28 23 20 17 16 15 19 19 22 18 15 20 20 28 27 16 14 9 10 15 16 18 14 14 10 14 9 8 9 8 7 7 7 13 18 38 40 42 44 39
41 41 41 40 36 29 22 20 18 17 17 21 22 22 19 22 21 21 18 17 13 8 10 18 19 18 15 13 9 7 10 6 7 6 6 6 7 9 12 16 34 44 44 41 41
41 42 42 40 35 27 22 20 19 17 21 21 25 22 22 24 38 16 16 13 7 7 13 18 15 13 12 12 7 8 6 5 6 6 5 6 6 6 10 12 19 40 42 43 42
42 43 42 39 33 26 22 21 20 20 21 26 24 23 24 23 26 14 15 14 9 11 15 15 16 10 14 10 6 7 7 6 5 7 7 6 7 8 9 11 17 35 40 40 40
43 44 42 37 30 26 24 21 20 21 26 26 24 23 22 35 16 14 15 14 14 14 15 14 12 9 7 10 8 6 6 6 6 8 8 8 10 10 10 10 17 31 36 35 35
41 42 38 33 28 25 22 20 21 25 26 27 23 20 20 20 18 14 14 13 14 14 14 11 10 9 9 11 9 8 11 11 10 9 10 10 13 12 8 9 15 20 29 30 31
39 38 34 30 27 22 22 22 24 25 28 26 20 19 16 21 17 13 12 12 12 14 15 12 11 12 13 9 9 11 14 19 14 12 11 12 19 13 9 9 12 13 17 25 28
35 34 31 27 26 23 23 24 25 28 28 24 22 21 29 18 12 14 12 13 12 14 14 11 12 13 11 14 17 16 21 20 16 13 15 14 18 13 10 10 10 12 12 15 22
32 30 28 25 24 24 24 25 28 28 28 24 27 43 23 16 14 12 12 14 14 15 14 13 14 18 20 22 26 20 17 21 21 14 11 12 14 14 11 13 13 12 12 16 30
32 28 26 26 25 24 26 29 30 30 29 20 19 28 14 12 11 12 13 14 16 15 21 15 23 26 17 14 13 14 15 22 19 15 14 15 13 18 16 14 14 21 31 40 40
37 31 28 27 25 26 28 37 36 39 27 21 22 18 13 13 12 13 13 15 15 23 19 20 25 16 12 12 14 14 20 27 19 16 15 16 18 20 19 18 22 34 37 40 42
36 32 27 26 24 26 27 48 46 33 25 16 16 14 16 17 15 14 15 17 17 20 21 25 17 12 14 24 23 27 30 28 24 21 19 19 22 23 20 22 27 30 33 33 39
38 30 27 24 25 26 30 47 45 21 34 19 16 14 15 16 18 16 15 17 14 20 24 23 15 17 18 25 24 33 28 27 26 28 35 20 34 27 25 28 28 28 29 34 40
46 37 28 29 52 47 48 40 22 25 61 18 18 14 15 18 17 17 14 17 19 16 22 21 22 28 30 25 22 29 24 27 27 32 33 31 33 30 26 33 34 34 33 35 37
38 40 34 42 56 48 41 23 17 81 48 22 17 19 16 17 17 16 15 17 15 18 23 22 20 24 25 22 21 21 29 33 33 37 62 48 39 45 32 32 34 32 31 34 37
33 35 40 48 58 36 24 18 68 80 24 22 22 19 22 20 21 20 20 24 33 30 30 24 27 25 22 30 25 27 41 73 69 85 74 47 42 56 36 29 32 38 39 39 39
31 34 36 38 44 25 25 59 60 28 21 16 20 21 26 21 23 22 26 33 31 37 39 42 45 30 25 28 30 34 35 75 63 81 68 41 46 45 35 32 35 36 37 37 38
29 29 28 27 27 25 45 82 59 29 18 20 20 27 26 23 24 28 35 33 32 31 42 46 39 26 26 25 27 34 43 25 61 62 80 48 40 34 34 33 31 32 35 38 38
29 29 34 26 21 25 72 78 36 21 18 18 26 26 32 27 28 31 33 32 29 28 26 30 42 26 24 23 26 30 24 56 66 63 56 44 50 60 42 42 39 33 31 34 39
37 38 38 36 22 36 79 65 26 20 28 31 29 21 28 28 27 31 36 33 33 27 26 36 43 35 23 32 35 38 41 38 39 64 75 78 50 26 42 48 44 38 38 41 46
49 58 51 28 42 50 61 37 24 26 27 26 28 23 28 26 36 39 48 42 34 37 37 31 46 56 37 26 24 26 34 40 74 55 79 82 61 31 49 39 37 40 45 45 46
47 49 48 34 70 83 44 30 25 28 28 25 32 33 29 38 43 52 53 42 40 48 54 43 45 70 53 44 34 26 29 30 60 71 59 74 59 30 33 38 42 43 45 45 46
56 75 48 53 53 54 42 35 36 29 31 28 31 27 33 38 36 53 56 46 41 39 34 46 37 50 68 37 29 28 28 24 49 85 72 73 53 39 51 52 48 50 50 50 53
56 59 36 68 50 52 43 41 42 39 31 29 31 33 37 41 42 56 55 52 46 36 39 46 54 50 45 36 30 29 32 34 34 38 52 49 44 57 59 59 57 56 54 58 62
57 60 29 37 24 42 53 37 42 36 36 35 34 33 40 44 48 55 51 48 48 39 43 50 76 54 49 48 47 44 44 44 38 33 39 40 48 52 51 53 55 56 63 69 70
51 39 49 56 45 61 51 33 33 39 34 34 34 56 63 51 45 45 36 36 42 45 53 66 75 82 82 71 77 76 53 38 36 34 36 46 47 55 60 59 61 69 69 71 69

GFSSW_850_rhum_024.txt.gz
RH
33 33 35 36 34 32 28 24 21 19 14 14 14 19 18 20 19 14 12 16 22 24 19 16 13 15 18 21 17 14 18 19 15 15 14 10 14 20 36 44 37 40 38 36 37
35 35 36 37 35 33 28 23 20 18 15 15 16 20 21 20 16 16 22 28 20 18 18 12 12 18 21 18 16 14 18 12 10 11 10 8 11 14 28 42 48 44 40 37 38
37 37 38 38 36 33 29 24 21 18 16 16 21 21 24 19 23 16 22 18 16 16 12 13 12 19 20 17 14 11 11 7 8 8 7 8 8 14 36 44 45 47 40 37 36
39 38 39 38 36 33 28 23 20 18 17 21 22 26 20 24 38 18 15 15 14 13 12 14 18 23 20 16 12 7 7 6 8 7 7 8 8 8 13 31 31 40 42 38 38
41 40 40 38 36 32 27 23 20 18 20 22 26 24 23 25 20 16 16 16 16 12 11 14 22 18 14 12 7 8 7 6 8 8 6 7 8 10 12 26 32 42 42 40 38
42 40 40 38 34 29 25 21 20 19 23 26 27 24 24 42 22 17 15 14 16 15 15 16 16 13 13 11 8 6 6 6 7 8 8 10 11 9 16 30 40 41 40 36 33
40 40 39 36 33 27 22 21 20 24 26 27 27 23 25 19 19 15 15 14 13 14 15 14 12 12 12 12 7 7 9 10 9 9 10 11 13 14 18 37 43 42 38 35 33
37 36 37 33 30 25 23 23 24 26 26 30 26 24 20 20 20 16 13 12 12 14 14 12 10 12 10 10 10 13 16 17 13 12 11 12 18 13 17 35 44 42 39 36 35
33 36 35 31 28 26 24 24 25 27 30 30 28 25 17 22 17 14 12 14 12 10 10 9 12 14 11 17 20 20 20 21 16 14 13 14 17 15 10 20 30 37 38 40 40
32 33 32 29 25 24 24 26 28 30 30 30 37 35 14 18 12 13 11 14 14 15 13 13 14 22 22 23 24 21 22 22 20 17 16 17 15 16 10 10 14 18 28 37 40
32 30 29 26 24 25 26 30 31 34 33 17 17 28 20 16 14 12 10 13 16 16 20 19 24 23 17 18 16 16 23 24 19 15 14 18 19 20 16 19 37 49 53 54 57
32 29 28 25 25 25 28 31 54 51 20 13 20 24 19 12 12 12 12 14 17 22 20 25 24 18 16 20 25 22 26 25 21 20 16 23 22 22 28 40 48 51 52 52 53
35 30 27 24 25 27 32 46 45 39 39 19 19 20 16 17 14 14 14 18 18 19 22 28 18 14 24 27 27 35 32 29 25 23 22 24 27 35 37 41 45 47 45 42 42
36 30 27 26 28 27 28 48 43 33 38 20 16 14 16 17 17 16 16 17 18 23 25 21 16 24 28 27 26 38 28 27 26 31 29 22 40 30 38 41 40 47 48 46 44
38 31 27 28 52 34 48 50 38 39 49 18 18 14 15 18 17 14 15 17 18 17 24 24 29 31 31 25 23 30 25 27 27 33 37 38 41 33 38 47 47 47 50 49 45
41 32 29 41 56 48 46 32 34 75 43 25 19 19 16 18 18 16 15 17 18 23 24 24 24 25 25 25 22 22 29 44 40 45 62 47 44 44 43 43 44 44 49 47 44
41 40 45 46 47 41 26 29 64 74 24 24 24 21 21 22 21 19 26 35 40 33 32 31 31 26 24 32 29 31 49 70 68 78 69 51 57 53 45 38 40 48 46 45 44
37 41 47 46 44 32 25 48 62 40 27 20 24 27 26 24 24 27 30 40 33 39 39 45 48 32 28 28 30 34 44 73 65 71 63 42 55 52 44 43 41 40 40 40 41
38 35 31 31 34 29 38 78 64 35 22 23 25 31 28 24 26 33 35 36 31 32 42 47 40 28 25 25 30 34 41 36 62 68 77 57 45 36 39 42 40 40 41 41 46
31 29 28 26 24 26 71 79 48 27 28 22 29 30 33 28 29 36 37 34 30 30 31 33 43 28 25 28 29 26 28 52 67 58 54 51 52 62 51 47 43 41 45 46 47
35 26 27 28 22 29 76 73 34 26 28 29 29 28 31 32 31 39 41 39 38 32 29 37 43 39 34 33 35 38 42 44 47 68 72 79 55 38 48 52 50 50 48 48 49
43 58 50 43 32 67 64 47 26 27 26 28 30 34 30 31 46 54 51 44 44 44 34 36 51 58 39 27 26 28 36 47 71 46 81 81 58 42 48 43 39 49 49 50 52
45 63 61 38 56 78 51 33 28 28 28 27 33 35 35 40 60 56 54 49 36 48 48 38 47 70 57 49 40 32 30 51 61 71 58 71 59 41 46 50 49 52 51 55 58
54 78 57 55 59 50 50 35 37 32 32 32 32 32 39 42 53 58 56 50 35 36 37 47 49 51 66 49 38 28 28 44 55 80 68 70 50 46 57 63 58 55 56 57 57
60 61 37 60 50 55 47 41 40 39 32 30 32 34 40 46 52 64 57 52 45 37 38 50 56 49 42 42 35 32 34 35 38 47 58 49 56 63 68 68 59 59 59 62 66
58 61 39 37 28 45 59 49 45 39 36 35 35 41 43 51 50 63 57 54 50 40 45 61 71 48 41 58 59 40 42 48 46 37 40 57 67 60 60 56 60 64 66 69 66
52 49 38 70 47 55 58 44 48 41 37 42 50 62 64 55 52 48 45 43 46 49 66 68 74 71 61 77 67 69 51 42 36 41 40 51 58 64 64 66 69 71 69 68 64

GFSSW_850_rhum_027.txt.gz
RH
26 31 30 33 33 33 33 30 25 22 17 16 14 12 15 20 20 18 10 7 15 22 21 14 13 18 17 21 18 15 21 20 15 33 34 26 17 36 43 41 41 42 46 55 47
31 33 32 34 35 34 35 30 25 22 18 16 14 15 21 21 19 12 12 16 23 25 23 15 14 20 23 20 18 18 24 18 13 14 20 17 28 38 44 46 48 40 46 54 42
34 34 34 35 37 36 35 32 25 21 19 16 17 23 22 22 21 13 19 20 25 25 18 20 18 19 22 19 16 15 14 8 9 11 13 14 26 26 46 50 44 41 46 46 44
36 37 36 37 38 38 36 31 24 21 18 18 22 24 25 23 30 18 17 17 19 21 18 17 17 22 25 20 15 8 7 8 8 8 8 10 12 32 21 35 34 32 37 42 43
40 40 39 39 39 38 36 30 23 20 20 21 24 26 24 26 20 20 17 17 16 14 12 15 20 22 17 15 11 8 7 8 7 7 7 8 10 12 14 34 37 35 38 39 39
41 40 40 39 39 38 32 26 23 22 23 25 27 26 26 30 22 20 18 17 17 17 14 14 16 17 16 12 8 7 7 8 8 8 9 11 11 12 25 40 42 40 38 38 37
40 39 38 38 39 35 30 26 23 23 26 27 28 28 26 18 21 19 16 15 13 15 17 15 14 20 13 12 9 7 10 10 9 9 10 11 13 15 35 44 42 41 40 39 38
40 36 38 37 37 30 29 26 25 27 28 29 31 28 20 17 18 18 15 13 13 16 16 12 12 14 11 10 13 14 17 17 12 11 12 12 16 14 38 44 46 44 42 41 42
39 36 37 35 32 26 27 27 28 28 30 32 31 30 17 18 20 15 13 14 12 15 13 10 12 14 13 18 20 23 20 18 17 13 14 12 14 15 31 44 48 50 50 49 48
39 34 35 32 28 25 27 28 28 31 33 35 44 33 13 16 13 14 12 14 14 14 10 13 14 22 23 21 21 19 21 21 20 17 16 16 17 16 29 45 43 45 45 46 46
36 32 32 29 27 26 27 31 35 36 37 20 19 18 23 19 14 13 11 13 16 16 23 20 26 23 17 18 16 17 23 23 20 17 18 18 25 37 26 29 49 53 54 60 62
34 31 29 28 26 26 29 36 54 49 33 18 19 21 16 20 15 12 12 15 17 23 21 26 25 19 22 29 23 25 26 24 22 24 21 26 38 51 52 58 59 64 66 67 68
34 29 27 26 26 28 35 43 48 44 42 23 13 15 18 18 16 13 14 18 19 20 21 26 19 21 24 30 33 36 31 29 25 26 25 27 36 51 49 56 59 62 61 59 57
34 29 29 28 28 29 32 44 49 36 40 24 18 17 17 17 17 17 16 17 19 22 25 22 27 27 29 28 32 35 29 27 27 28 31 25 49 44 44 52 55 60 57 56 54
34 30 30 30 32 28 42 51 44 36 54 18 18 15 16 18 16 15 15 18 19 22 24 27 30 30 30 26 25 30 28 28 29 37 39 43 50 44 47 55 56 59 56 51 51
33 29 28 49 48 36 47 34 34 69 39 21 19 17 18 19 19 17 16 19 20 27 28 28 25 25 26 26 24 23 35 46 52 49 63 50 45 52 54 54 56 56 56 52 49
34 28 30 54 55 44 28 30 57 79 26 26 25 19 21 23 22 21 34 38 35 34 36 34 33 29 27 31 29 35 48 69 69 76 71 49 56 53 44 44 48 56 55 48 47
39 33 46 50 49 36 25 40 54 46 29 23 25 24 27 26 30 30 35 40 34 37 44 48 47 33 28 29 32 37 43 73 59 71 63 48 60 56 50 43 42 48 47 49 55
42 49 48 45 34 32 28 64 62 52 23 28 29 30 30 26 33 35 37 38 32 33 42 46 39 29 26 26 31 35 45 40 70 72 79 64 49 43 46 53 48 45 45 50 52
44 37 32 30 27 26 63 77 58 36 26 26 33 32 35 30 34 40 38 36 31 33 33 40 45 31 26 29 29 28 35 55 68 57 56 54 59 67 54 56 52 54 54 52 50
33 30 38 29 24 26 64 73 56 27 29 25 30 34 32 33 37 42 43 43 44 36 32 38 40 38 35 35 37 39 41 50 54 70 72 77 60 42 53 55 56 59 55 54 55
32 53 48 31 33 72 68 57 34 28 27 32 34 30 36 39 53 49 51 45 47 44 32 40 53 60 40 34 33 32 38 45 62 45 83 79 60 39 53 51 50 54 52 54 58
41 76 65 33 53 79 49 44 32 29 31 30 33 36 38 54 58 57 56 49 39 46 43 38 50 69 53 48 37 34 37 60 62 70 61 71 57 49 53 52 54 56 58 61 61
50 82 66 54 42 45 46 40 38 33 33 33 34 38 42 53 61 63 57 52 36 37 43 44 56 50 60 46 43 32 32 51 52 77 66 67 44 51 63 66 60 59 61 63 64
57 60 50 69 66 66 49 42 41 38 33 32 34 36 42 51 58 66 59 53 41 40 44 48 53 49 49 51 37 32 35 44 47 50 54 48 58 49 70 72 62 58 63 66 66
60 61 42 44 33 54 61 52 45 40 36 37 40 51 42 49 50 65 59 51 38 43 54 65 69 44 48 64 61 42 38 41 44 44 55 47 63 64 62 62 64 64 68 68 66
57 57 30 72 59 60 66 51 48 43 49 45 49 58 56 54 53 53 49 46 47 52 71 66 73 59 48 76 53 50 44 50 44 42 46 70 61 70 69 64 66 69 68 67 65

GFSSW_850_rhum_030.txt.gz
RH
21 23 25 30 32 34 34 33 32 28 23 19 15 13 14 15 20 18 15 10 10 18 20 17 12 16 19 20 21 16 21 22 18 42 42 27 30 39 46 44 44 45 56 71 63
24 27 29 31 34 36 36 35 33 29 24 18 16 17 17 21 19 15 7 8 12 21 23 20 18 20 22 21 20 20 24 18 15 30 32 29 27 29 45 46 46 49 62 65 42
28 31 32 33 36 36 38 38 34 29 22 20 19 19 23 23 18 12 18 18 20 26 26 24 20 20 23 21 18 18 20 13 9 17 25 23 33 37 48 50 45 55 65 59 38
31 35 34 37 38 37 40 40 34 27 23 20 20 23 25 24 27 20 17 20 20 22 23 20 20 20 27 23 17 14 11 10 9 11 23 27 26 41 38 31 33 39 49 44 32
36 39 37 40 39 38 41 39 33 26 24 21 22 26 28 28 17 22 19 18 17 19 20 19 19 19 23 18 14 11 7 10 8 10 18 17 17 37 22 35 35 44 47 42 38
39 41 38 39 38 40 41 37 30 26 24 22 26 28 31 37 19 23 19 18 18 18 18 19 16 19 20 14 9 8 9 9 8 9 9 12 14 14 21 41 36 39 43 42 42
43 40 38 37 39 42 40 34 28 26 24 26 30 30 31 16 20 19 19 16 16 16 17 16 14 20 18 14 10 8 9 10 10 10 13 11 12 16 36 41 37 39 41 44 46
45 39 36 37 41 42 36 31 29 25 27 30 32 32 22 16 17 19 16 13 14 15 16 19 18 21 18 11 14 15 17 14 11 11 14 12 15 14 45 41 43 43 47 48 47
45 39 37 37 43 38 34 28 28 28 30 33 35 36 20 17 20 17 14 13 14 15 16 16 17 15 13 19 21 22 20 18 15 13 14 13 14 18 50 49 51 47 46 45 44
45 39 36 37 40 35 32 30 30 31 34 37 48 40 15 18 17 14 13 13 16 16 15 15 15 22 23 18 21 18 20 20 19 16 15 16 29 45 39 53 55 53 53 52 50
43 38 35 36 37 34 33 34 37 38 39 25 22 20 26 18 17 14 12 13 17 16 23 21 26 24 19 19 16 19 20 21 22 18 24 51 61 64 45 52 61 62 58 56 54
42 37 34 34 33 32 32 34 40 45 42 24 22 24 16 18 18 14 12 15 18 23 22 27 26 21 27 26 27 26 27 25 24 26 28 48 56 65 64 66 65 67 73 72 74
41 36 32 31 30 30 32 48 50 50 47 26 15 16 17 18 18 14 14 17 19 21 25 28 21 24 27 32 33 35 30 29 27 25 29 32 42 60 55 67 69 71 72 79 81
40 36 32 32 33 30 37 47 54 52 40 25 21 18 17 18 18 17 17 17 21 24 24 29 29 27 29 30 32 32 30 28 30 28 38 30 42 50 56 66 69 68 66 62 58
42 36 32 31 30 31 34 54 52 47 48 20 19 15 17 18 17 17 17 18 21 26 24 29 29 30 31 28 26 30 32 33 33 42 41 45 50 53 62 69 70 69 62 57 51
43 38 34 44 32 30 47 39 44 67 46 23 19 18 20 20 20 17 20 20 22 32 34 32 27 27 27 30 27 30 41 49 55 52 63 52 46 52 65 63 64 63 62 54 55
42 37 36 52 36 38 36 42 53 72 27 27 24 20 23 25 26 28 35 39 32 38 41 37 35 32 29 32 31 41 50 70 70 76 72 50 53 49 46 52 57 62 61 56 55
45 37 38 59 44 38 41 36 42 43 36 24 25 24 27 28 33 34 36 40 35 37 48 48 46 32 29 30 36 39 44 73 57 77 68 50 61 53 53 43 46 51 50 55 55
54 42 51 59 46 31 30 56 49 55 28 30 27 30 32 29 33 37 39 39 34 35 40 46 40 31 27 28 32 39 47 43 72 72 80 68 53 50 56 59 53 52 52 52 55
51 59 58 41 34 36 50 49 54 49 29 26 30 32 37 33 37 40 39 39 34 36 35 42 46 33 28 30 33 29 42 53 68 56 53 58 61 70 62 64 60 58 55 56 56
58 46 47 31 34 29 52 50 60 40 33 26 33 37 35 34 40 44 43 43 44 40 35 39 41 40 35 37 40 41 44 53 58 70 68 75 69 51 59 59 61 56 52 52 56
45 56 54 35 39 69 66 64 45 29 30 34 34 30 36 41 49 47 48 45 49 46 33 42 52 59 41 33 38 34 38 43 59 42 84 79 60 45 57 52 52 52 53 59 62
44 78 68 38 62 81 50 45 38 30 35 33 37 37 44 56 56 57 56 49 41 42 42 41 51 68 49 39 36 36 46 57 59 70 66 73 53 53 58 57 53 58 65 68 67
43 92 72 55 31 47 39 46 39 35 36 35 40 41 49 58 64 66 60 52 38 40 47 41 56 51 56 40 43 37 45 51 48 73 64 68 42 50 60 62 63 64 66 67 65
48 69 60 79 75 47 42 43 42 38 35 34 38 41 48 57 60 65 60 54 40 45 50 45 51 49 54 56 41 32 37 55 49 47 50 44 57 45 59 69 62 61 66 67 64
61 57 48 58 59 58 58 50 44 42 42 38 41 52 44 53 48 66 60 53 37 50 57 62 65 43 56 66 61 46 40 44 47 44 58 50 53 50 60 57 64 64 66 64 64
61 48 35 72 70 66 72 58 49 48 52 48 46 53 49 52 54 55 48 50 47 55 70 63 72 62 60 72 53 51 49 49 47 52 48 56 50 74 72 70 67 65 65 64 65

GFSSW_850_rhum_033.txt.gz
RH
19 20 20 24 27 29 31 33 29 32 31 26 22 18 16 14 13 14 12 11 12 16 18 19 12 12 16 19 22 17 18 18 24 40 52 43 43 35 38 44 46 53 77 73 78
21 22 25 29 31 32 34 35 32 34 30 27 22 20 16 16 18 14 13 10 10 13 21 20 18 18 21 21 22 18 19 16 14 31 26 27 32 39 46 48 47 54 73 76 74
23 24 30 31 35 36 38 36 34 34 30 27 22 18 17 21 20 13 22 10 12 17 28 24 19 20 24 23 21 20 18 16 12 29 27 26 33 46 44 44 45 60 77 73 66
26 30 33 35 38 38 39 38 36 34 31 25 20 19 24 26 25 22 19 21 21 22 27 22 21 21 27 23 19 16 12 11 9 16 23 29 35 44 39 36 38 44 62 52 38
28 34 36 38 39 39 40 40 36 34 29 23 20 24 28 28 14 22 19 18 20 21 21 19 18 19 27 24 16 15 9 10 9 9 21 28 36 41 34 32 37 50 55 43 25
33 37 40 39 39 41 42 40 35 32 26 22 24 29 32 36 17 22 20 19 19 19 20 22 17 17 22 16 14 12 10 10 11 15 17 18 20 31 30 38 43 51 48 41 34
39 39 41 39 39 42 42 40 35 28 24 23 28 32 33 16 20 20 19 19 17 18 19 19 17 22 20 18 10 9 11 11 12 12 14 13 14 16 32 38 49 60 53 43 36
40 41 42 41 42 44 42 39 32 26 26 29 32 35 22 15 16 18 20 15 14 16 19 20 22 19 21 13 15 14 16 13 12 12 14 12 15 20 53 44 56 61 54 45 42
42 43 44 41 44 43 41 33 32 31 32 34 38 40 18 16 18 20 15 14 15 16 18 20 21 22 14 18 18 21 16 18 15 14 14 12 19 34 58 49 51 54 57 52 50
44 44 45 40 46 40 37 32 35 35 36 41 47 50 16 18 19 15 14 13 17 18 19 20 19 21 21 16 19 20 19 19 16 16 20 22 38 43 46 54 56 55 52 52 51
46 44 45 41 45 37 33 37 44 46 41 29 24 24 26 17 18 14 13 13 18 16 24 22 20 20 18 18 15 18 20 19 20 20 37 50 54 53 51 60 63 65 56 55 54
47 46 43 44 40 38 33 39 34 41 39 25 26 24 18 19 18 15 13 15 18 24 22 24 26 21 29 22 25 24 25 27 26 26 32 45 51 58 59 65 66 66 67 60 59
48 48 41 43 36 33 29 40 56 55 51 29 20 18 17 19 17 14 13 18 20 23 25 29 23 25 29 30 30 32 30 30 27 26 30 33 36 52 57 68 73 75 74 72 70
49 48 43 39 38 30 32 40 61 65 40 26 26 20 18 20 18 17 18 17 23 26 29 31 29 27 29 31 30 35 30 29 28 25 27 29 25 44 56 65 69 74 80 85 86
50 46 40 38 34 31 36 38 62 60 50 23 21 17 19 18 18 18 19 18 25 28 26 32 30 30 32 30 27 36 35 34 34 36 36 38 30 36 60 65 69 70 74 75 70
52 48 40 36 39 32 42 58 60 60 52 25 20 20 22 21 20 20 22 20 24 35 34 34 29 30 29 35 31 40 39 43 46 43 45 49 37 33 55 56 64 67 69 67 65
52 50 37 32 43 35 49 54 51 63 30 28 24 23 25 26 28 31 36 40 32 40 43 36 36 32 30 33 33 37 40 50 55 60 54 48 49 37 40 47 56 61 63 63 57
55 52 39 43 61 53 49 39 44 40 40 25 26 27 32 31 36 36 37 40 37 37 42 41 40 32 30 32 35 40 40 58 53 62 55 45 51 38 47 44 55 59 59 56 54
58 54 45 52 68 60 43 56 49 46 35 31 28 32 33 32 35 39 41 38 37 36 38 45 40 31 30 31 32 41 39 41 62 70 61 48 46 40 51 48 54 55 61 59 54
55 60 42 49 70 54 47 51 40 46 32 26 30 34 40 37 39 41 39 41 36 37 36 43 45 34 30 32 36 33 39 45 50 54 46 42 49 41 53 53 51 54 58 60 59
62 64 54 72 57 51 55 46 53 50 36 28 35 38 38 39 42 44 43 45 43 40 37 40 40 40 37 36 38 40 43 50 47 52 42 48 32 45 45 49 52 50 55 60 59
70 64 73 57 47 64 58 48 49 37 33 37 32 36 38 42 48 49 48 44 50 45 39 42 50 54 41 35 38 36 40 42 47 41 64 57 38 36 47 48 53 53 59 55 55
59 72 62 60 68 77 50 47 39 33 36 35 41 39 48 57 53 57 57 49 44 40 46 45 52 57 43 34 36 39 43 45 50 59 58 73 34 42 54 54 54 54 55 57 61
52 89 70 58 36 49 51 42 39 37 38 38 47 47 55 58 63 66 61 52 39 44 44 39 52 49 50 38 41 43 51 45 43 56 49 51 34 33 49 54 60 60 59 63 66
58 76 66 76 61 46 35 47 43 41 37 36 43 44 53 61 61 66 61 51 43 50 54 45 47 49 53 53 46 35 42 50 42 43 46 37 42 32 36 48 56 70 70 68 67
55 60 54 64 44 51 55 53 46 46 43 38 48 51 44 56 49 66 60 52 37 54 57 57 60 48 58 60 56 49 40 42 50 46 45 45 43 35 44 54 63 65 72 74 69
56 43 30 79 72 56 61 59 47 52 54 51 48 53 50 55 56 58 50 50 49 56 65 58 66 59 57 60 47 54 46 42 43 43 40 45 33 58 61 63 61 69 71 71 65

GFSSW_850_rhum_036.txt.gz
RH
18 20 21 21 23 26 28 29 28 28 28 30 26 23 16 15 12 11 10 10 14 13 22 17 14 18 18 16 19 16 12 17 28 35 37 32 31 35 34 41 45 55 62 80 97
19 21 23 27 28 29 30 32 32 31 32 32 26 21 16 14 13 13 13 15 13 12 21 20 13 18 14 15 17 13 14 13 13 20 22 27 24 32 33 35 42 56 80 96 90
20 22 23 28 31 31 33 34 34 33 35 33 25 20 17 18 23 18 23 10 10 15 21 22 19 18 14 15 15 12 14 10 10 17 20 23 25 29 30 30 35 42 84 99 92
21 23 27 31 34 35 34 36 35 36 37 30 22 19 19 25 21 22 20 12 13 17 28 23 19 17 12 13 12 15 11 11 8 20 20 20 24 30 30 28 35 38 76 94 91
22 25 29 34 37 38 36 37 37 37 34 28 21 20 26 39 29 21 20 20 17 20 26 22 18 14 12 13 14 14 11 10 10 17 21 22 24 27 30 36 44 61 81 77 70
24 28 32 37 40 38 37 38 38 36 31 25 22 25 31 40 16 20 21 19 20 20 24 23 17 17 19 16 14 12 10 9 10 13 22 22 28 31 35 43 58 70 65 52 44
26 32 37 40 42 39 38 40 36 34 28 24 26 31 32 33 19 22 19 19 22 21 23 23 21 19 21 17 9 10 10 11 14 17 17 20 22 17 35 43 53 51 47 43 33
30 38 40 43 43 40 39 40 32 32 29 26 31 34 42 14 16 17 19 19 17 22 26 25 26 22 21 15 11 9 9 14 13 15 14 17 15 18 37 36 39 40 43 44 41
34 40 43 44 44 39 41 38 31 35 30 32 36 43 33 17 17 20 16 19 16 18 26 22 25 21 19 14 11 12 10 10 12 11 14 10 13 22 40 34 39 42 43 43 42
38 42 47 45 42 40 42 33 34 37 34 36 44 63 18 19 20 16 14 16 22 22 26 26 20 15 13 12 12 13 10 10 10 11 11 11 20 22 39 33 34 39 41 42 45
44 46 49 45 40 41 40 37 46 53 33 38 30 35 25 22 18 16 14 19 20 20 16 20 18 14 11 11 10 10 14 12 12 15 13 15 18 22 33 38 35 38 42 45 50
47 50 48 47 40 42 40 57 40 51 35 24 31 34 21 18 22 15 14 15 16 14 19 19 16 17 18 15 14 14 15 18 19 16 17 21 24 28 29 35 37 38 42 47 56
51 52 49 45 40 41 30 28 52 55 49 33 33 29 22 20 17 14 15 17 16 16 18 16 20 21 17 17 18 20 18 21 18 20 20 22 25 32 36 43 50 52 47 50 54
53 55 52 43 43 36 26 30 43 68 35 22 23 21 16 23 17 16 17 17 18 17 20 21 22 21 20 20 21 22 22 20 20 19 19 20 18 26 34 34 42 50 56 57 63
54 56 53 44 37 31 38 35 49 65 31 16 19 19 22 19 15 19 19 18 15 19 21 25 22 21 20 23 22 26 22 21 20 20 23 22 20 21 34 36 37 45 54 63 70
56 57 58 45 32 35 38 55 72 50 39 22 18 19 19 19 18 21 21 21 24 22 21 24 24 21 23 26 23 28 27 27 26 25 29 22 25 13 17 25 37 46 59 65 66
59 59 56 36 52 40 48 72 45 43 23 24 20 18 17 20 20 20 22 22 20 28 28 24 26 24 25 26 28 26 24 25 32 35 30 34 30 16 26 29 34 47 58 61 61
62 62 58 40 44 44 69 50 42 21 24 21 18 17 20 20 23 26 26 24 26 23 23 23 32 24 25 25 22 25 23 25 26 31 29 34 33 26 32 31 38 45 52 55 55
66 66 62 34 46 88 61 54 32 28 22 22 21 21 25 23 20 25 27 22 24 26 20 26 28 24 26 25 24 29 27 30 42 56 47 25 27 26 33 33 39 44 48 49 47
66 64 62 36 60 79 56 45 27 31 24 20 22 20 25 24 21 24 28 28 29 29 30 29 33 26 27 26 28 28 27 34 34 43 30 20 23 17 35 35 36 42 46 43 43
84 70 51 40 51 78 54 35 27 40 31 21 18 26 22 28 21 21 26 32 30 29 28 26 26 33 30 27 25 34 32 31 27 35 26 23 14 25 27 30 33 38 42 40 43
76 56 60 47 71 60 41 29 36 30 40 25 20 21 25 27 30 24 26 25 37 28 29 32 31 40 31 29 28 27 28 27 27 30 42 42 20 21 28 32 34 34 39 40 47
64 69 97 80 64 60 38 32 39 29 30 30 27 25 30 30 34 34 36 45 45 32 33 32 35 41 38 32 30 30 29 26 31 36 36 56 18 22 29 32 34 36 38 47 54
54 71 97 76 44 37 36 33 35 38 33 34 36 36 37 39 42 46 44 43 44 38 38 31 36 32 33 27 27 35 33 29 26 35 24 28 14 18 23 28 30 37 42 50 58
53 50 53 67 48 36 31 29 32 38 34 34 36 30 33 45 43 47 43 39 42 48 43 34 36 36 34 33 32 28 28 31 28 24 32 18 19 12 15 18 23 35 44 50 57
54 52 58 45 38 36 42 34 30 37 34 33 33 36 36 39 31 43 39 36 35 43 40 40 41 42 44 41 38 36 29 26 28 25 27 23 23 16 19 26 32 43 49 52 55
54 44 40 64 39 37 34 35 29 39 50 42 34 38 43 44 48 45 47 38 33 40 45 43 49 44 38 42 39 62 36 27 25 28 29 30 22 20 27 30 31 39 48 51 54

GFSSW_850_rhum_039.txt.gz
RH
17 17 18 19 19 22 22 25 26 27 29 30 30 27 21 14 13 14 17 21 19 12 18 22 18 16 14 11 11 11 11 10 26 31 36 32 27 26 28 28 33 44 46 66 90
18 18 19 20 22 23 23 28 29 30 31 31 30 26 18 13 13 14 15 13 12 13 17 18 14 12 11 10 11 10 10 10 22 39 74 35 27 23 24 22 25 43 59 81 99
20 20 21 23 26 25 25 28 31 32 32 31 29 23 16 13 36 17 21 19 13 12 20 18 12 10 10 10 11 10 12 11 10 19 41 21 20 22 21 25 29 36 63 99 100
21 20 22 25 28 30 30 30 32 34 33 31 27 20 16 17 25 24 20 17 8 14 23 17 13 12 10 10 10 10 9 10 9 12 20 21 20 21 27 52 24 30 68 100 84
22 22 25 29 32 34 35 32 32 35 34 30 24 20 19 50 24 24 20 20 11 17 21 15 13 12 11 8 8 10 10 9 11 14 18 20 19 19 24 23 22 40 72 76 71
24 24 29 34 36 37 37 32 33 35 33 28 24 23 36 35 18 26 24 19 21 23 18 17 14 12 13 12 11 11 10 10 14 17 18 18 19 20 26 27 34 53 59 58 56
26 26 31 38 40 41 37 32 35 35 31 26 24 26 55 32 21 28 25 24 24 21 18 17 16 16 16 14 10 9 10 10 10 13 16 19 24 32 28 29 38 48 47 42 38
28 29 36 39 42 42 37 34 36 33 29 25 26 40 42 25 24 23 26 25 26 25 21 22 20 19 19 16 10 10 10 16 12 14 15 16 19 20 26 29 29 30 31 26 24
31 32 39 43 45 42 37 37 36 31 28 27 33 56 34 23 19 18 19 20 22 24 24 25 24 20 18 17 11 10 12 13 14 11 12 15 13 17 22 24 25 26 27 25 24
34 35 43 46 47 43 38 39 33 29 29 31 43 66 32 18 16 19 17 18 22 24 26 23 22 20 16 15 18 14 13 10 10 10 10 10 12 13 19 21 25 27 29 31 30
36 39 47 49 48 44 42 36 49 70 62 31 27 24 20 20 19 17 14 16 21 20 18 20 20 18 13 12 11 10 9 8 8 8 9 9 12 16 20 20 23 27 29 31 32
38 41 50 52 49 47 44 52 35 58 40 30 28 28 27 24 19 15 14 15 18 18 13 17 18 13 10 10 10 9 12 13 11 9 10 9 12 14 16 18 19 23 27 31 34
43 45 51 53 52 46 41 52 51 58 45 23 21 23 22 20 16 13 14 13 15 18 14 24 18 15 12 11 12 12 14 20 14 13 11 12 14 18 18 20 22 24 25 30 36
47 49 55 56 53 58 51 34 54 65 42 22 22 20 19 19 16 13 14 13 16 18 17 29 22 15 13 12 13 18 16 14 14 17 17 13 17 16 20 24 29 32 33 31 37
51 52 55 56 83 60 48 40 56 74 47 14 14 17 15 16 12 14 16 14 14 14 15 18 17 15 13 16 16 24 17 15 13 13 17 16 14 22 18 22 26 27 35 38 41
53 57 61 62 51 59 63 54 64 58 53 17 15 17 16 15 13 12 14 14 16 14 13 31 18 15 17 18 17 19 19 18 16 15 25 16 16 14 18 17 20 26 35 40 49
56 62 60 56 59 61 73 79 55 50 16 17 18 16 16 16 14 13 14 16 15 20 22 18 17 19 18 19 19 18 19 30 32 26 28 21 20 14 15 20 18 28 36 46 51
61 67 62 60 78 74 82 71 54 24 21 14 14 15 17 14 15 14 14 15 12 15 16 20 29 19 18 18 20 20 18 26 29 25 21 22 18 19 21 23 25 31 38 46 50
66 76 74 54 73 89 72 72 42 21 15 17 15 18 17 15 15 16 18 14 13 14 23 27 24 19 19 19 17 20 21 21 26 46 37 16 13 22 22 24 27 32 40 45 47
79 96 72 69 51 96 76 55 31 17 14 15 20 16 19 18 18 16 17 13 16 19 19 18 26 19 22 20 21 22 19 26 24 36 29 14 13 16 24 23 26 32 38 41 43
84 76 52 82 50 92 72 43 28 19 22 18 17 17 16 17 16 16 16 19 18 21 21 15 18 28 24 23 17 26 25 22 22 26 31 22 15 13 16 19 24 28 34 38 39
84 60 80 65 54 64 54 34 25 22 28 19 18 15 17 17 19 16 15 16 20 19 21 20 20 25 23 22 21 20 21 22 33 25 28 38 23 13 16 16 21 25 30 35 36
79 74 96 68 57 70 40 33 24 22 27 22 19 16 16 20 24 19 16 37 33 26 21 24 21 27 28 26 24 24 20 19 20 27 30 46 23 14 16 17 18 20 25 32 34
62 84 98 92 41 47 44 33 29 27 22 20 17 16 20 20 19 23 23 36 38 28 33 31 20 23 30 22 21 30 24 22 23 36 28 21 16 13 15 16 15 19 22 26 32
62 43 63 70 52 58 36 29 28 31 26 25 23 23 23 27 25 30 26 37 37 39 30 30 32 24 22 23 24 23 21 21 24 23 30 20 16 10 8 10 13 15 21 26 35
71 35 45 42 44 55 44 32 25 24 28 29 21 21 21 26 28 30 30 31 31 36 33 29 34 34 39 28 29 29 23 20 17 19 18 16 15 11 14 12 15 16 21 25 33
72 35 42 51 49 43 38 28 24 27 40 26 20 20 26 30 34 33 29 26 25 34 37 36 37 41 38 32 30 53 31 22 18 17 18 24 17 13 16 18 19 18 24 27 32

GFSSW_850_rhum_045.txt.gz
RH
28 23 20 18 18 19 20 21 21 21 22 23 22 25 24 21 16 11 8 11 14 18 14 9 22 21 16 16 14 13 17 17 15 49 57 61 61 57 42 64 53 47 49 64 80
28 26 21 19 19 19 20 21 22 23 23 24 24 26 24 19 11 12 21 16 11 12 12 10 18 18 16 14 13 13 20 17 16 50 56 55 46 60 60 56 63 69 64 63 84
32 27 23 20 20 20 21 21 24 25 25 25 27 26 22 18 21 25 19 20 14 17 11 12 18 18 16 13 12 11 15 13 18 33 36 49 46 38 45 39 48 58 62 61 85
41 29 25 22 20 21 22 22 25 29 26 28 29 26 21 17 42 24 21 16 15 14 12 14 19 20 16 13 9 13 11 11 24 29 39 48 41 39 33 35 41 64 72 73 80
53 36 28 23 22 22 24 25 28 30 27 31 30 26 19 34 17 23 23 18 17 12 13 18 21 17 16 12 12 12 11 10 20 29 32 40 47 42 34 33 39 43 53 78 68
65 44 30 25 24 24 26 26 31 31 29 32 29 25 25 57 17 22 19 19 18 15 18 20 19 13 12 13 19 12 10 11 13 20 24 39 53 31 29 36 37 38 51 66 67
81 54 34 27 24 25 27 30 34 30 32 31 28 26 30 11 18 22 29 23 23 19 19 19 17 15 15 22 18 14 13 13 15 21 29 35 52 50 32 39 63 68 64 64 62
91 64 40 30 25 27 29 34 34 30 32 29 27 31 27 10 15 20 25 27 24 22 21 20 19 18 16 17 20 21 13 20 17 22 30 26 43 36 43 60 67 66 60 57 55
98 78 51 33 26 29 32 36 32 31 30 28 29 77 48 29 22 15 19 20 22 23 22 21 22 21 21 26 34 20 20 21 22 16 33 33 35 29 35 47 49 48 48 41 35
100 89 60 36 28 32 35 36 30 31 32 31 34 59 29 16 19 15 18 18 18 20 22 22 22 28 30 32 38 24 22 19 23 19 26 27 27 26 30 40 45 44 43 38 34
98 99 69 41 31 36 40 38 56 68 53 30 28 12 16 21 18 15 16 17 17 22 34 36 36 37 30 28 19 19 21 21 18 16 21 26 26 27 22 30 34 36 37 34 30
89 100 76 45 31 40 45 44 50 55 66 50 49 46 28 26 23 19 16 16 17 40 45 45 57 31 21 23 23 22 23 23 20 12 11 15 18 20 22 29 29 28 26 28 26
96 95 83 50 35 38 43 31 27 50 68 48 34 39 26 22 23 21 15 15 20 44 44 54 43 32 22 26 25 30 33 26 30 28 18 13 17 17 18 20 27 26 24 23 25
90 96 83 51 40 79 53 52 26 58 91 46 31 33 21 15 23 18 17 13 15 28 40 38 30 30 29 30 24 34 23 27 26 33 35 24 37 24 20 20 25 30 27 27 28
100 99 86 55 60 75 62 51 50 65 95 33 28 18 13 17 18 18 15 14 20 21 29 41 40 33 36 30 23 27 25 27 30 30 33 32 44 34 25 23 22 24 30 30 31
93 98 94 55 40 54 63 67 59 93 91 28 19 18 22 20 20 16 14 13 14 21 28 28 27 27 30 28 26 23 25 29 48 47 48 33 36 45 28 26 29 20 22 30 36
81 100 95 63 34 75 60 68 88 98 27 22 22 19 22 22 21 18 19 20 24 29 40 29 23 30 26 35 26 29 32 57 69 81 70 34 37 42 30 23 31 26 24 31 36
96 100 96 70 48 81 60 89 96 47 40 18 20 21 25 21 21 20 21 25 22 22 30 39 40 35 29 25 29 34 36 59 70 84 70 31 40 34 28 24 22 24 26 28 34
98 100 100 74 62 89 97 97 72 46 26 26 19 25 26 21 21 22 21 24 20 19 26 51 47 39 29 33 26 41 48 35 58 67 77 42 22 28 28 26 32 32 33 38 43
83 100 96 78 47 94 99 75 62 38 30 29 27 24 29 24 23 24 24 18 19 17 25 38 54 51 38 36 25 32 26 38 48 40 41 36 30 46 36 32 37 39 43 45 47
85 100 86 86 61 97 90 74 58 43 34 34 25 24 24 26 22 21 23 18 18 21 33 46 45 57 44 46 34 29 31 27 31 53 59 70 42 19 29 30 37 41 42 44 46
100 94 78 79 97 82 86 62 51 44 37 41 27 25 24 25 25 23 22 20 15 20 29 39 55 72 54 38 28 21 28 41 65 39 53 72 50 18 23 28 25 32 38 41 43
90 80 76 64 76 86 64 61 52 46 42 38 29 24 23 26 31 26 24 36 25 24 30 30 39 67 47 38 32 25 26 21 31 58 48 68 51 20 15 15 20 22 32 40 42
88 93 99 94 42 52 68 56 55 42 44 37 35 28 32 29 25 32 44 37 34 36 28 30 35 43 53 33 28 28 28 25 30 70 50 52 38 29 23 21 18 16 18 34 38
98 69 72 94 84 54 53 50 54 54 40 38 39 32 33 33 27 29 46 44 35 34 30 36 39 27 27 30 29 25 27 29 29 37 49 42 37 29 22 22 18 18 18 18 25
95 71 73 74 70 73 57 52 50 43 42 42 41 34 31 32 32 33 40 44 43 41 36 36 47 35 40 36 34 36 32 29 29 26 26 26 28 23 19 19 19 18 17 20 23
99 64 58 72 74 79 63 49 45 42 38 34 32 38 34 32 23 33 20 29 38 50 47 50 52 68 58 44 40 52 35 30 30 27 25 30 29 30 30 28 25 23 26 25 26

GFSSW_850_rhum_048.txt.gz
RH
20 21 24 21 19 18 18 18 19 20 21 22 22 24 22 19 15 9 9 12 13 14 13 13 11 22 22 16 15 16 20 23 18 33 47 61 66 68 54 38 61 59 68 88 100
34 22 24 23 20 19 18 18 20 21 22 24 24 25 23 18 11 21 19 17 11 11 12 12 10 20 23 17 15 15 21 18 14 36 52 59 57 58 54 56 67 96 93 95 90
46 33 22 24 21 20 19 19 21 21 24 26 25 27 23 17 17 24 18 19 18 11 14 12 13 18 20 18 16 14 17 14 14 25 40 51 43 44 48 58 60 99 100 99 95
71 48 30 24 23 20 20 20 21 24 27 26 26 27 22 16 33 22 22 19 18 12 17 12 16 23 20 18 12 12 12 12 12 36 45 49 39 41 38 37 66 69 71 79 92
86 69 43 26 24 21 20 20 23 26 29 26 27 26 21 22 10 18 23 20 16 15 12 17 21 22 21 15 14 16 15 12 18 39 39 39 39 42 45 47 64 52 66 70 86
92 86 60 34 26 22 20 22 25 30 30 30 28 26 24 59 15 20 28 25 19 15 15 16 18 20 20 16 20 20 19 16 34 39 34 36 36 35 46 58 63 52 67 65 86
90 92 78 46 29 23 21 24 28 32 31 33 29 26 26 10 11 21 28 28 23 21 18 19 19 21 19 21 18 21 14 15 31 36 43 32 41 41 44 50 64 68 57 71 87
79 89 89 61 32 26 22 25 29 33 32 34 28 27 23 8 17 16 25 27 27 26 22 21 22 22 20 19 22 26 16 21 19 30 35 30 36 35 36 41 42 46 57 71 77
76 91 96 73 39 28 23 27 31 32 34 32 29 47 38 24 11 18 25 22 22 25 25 23 22 22 22 29 35 29 21 24 21 23 31 26 30 32 33 45 68 62 66 70 76
81 77 97 83 52 29 24 30 32 36 45 36 37 48 21 16 24 13 20 18 21 22 25 23 24 32 36 37 43 30 21 19 22 21 32 31 30 30 51 67 68 63 65 64 66
89 74 87 91 61 29 26 32 42 64 62 47 27 16 13 19 22 18 16 18 21 22 32 36 41 44 38 36 29 25 21 23 22 18 33 35 28 28 55 58 59 60 51 52 59
93 77 81 94 68 30 30 35 50 55 60 41 40 45 34 40 39 20 19 18 21 37 44 38 38 33 35 27 27 25 27 31 22 22 23 30 28 27 44 52 52 49 49 43 55
88 86 84 87 74 30 35 48 60 46 63 48 37 28 28 29 36 22 21 17 32 43 44 41 31 30 34 27 32 30 31 30 30 27 19 19 19 23 24 35 45 45 43 39 41
86 99 88 81 69 31 64 72 39 50 84 60 51 33 29 22 18 20 19 19 25 40 40 33 26 30 35 33 29 36 28 29 26 32 31 23 26 30 24 28 36 37 38 38 34
86 96 98 89 46 50 71 70 60 66 58 30 35 25 21 16 20 18 17 19 18 35 38 38 37 36 35 31 25 36 30 29 27 34 38 35 37 32 25 27 38 35 32 32 32
92 98 99 94 68 41 69 66 62 83 73 40 30 25 20 16 18 18 16 17 16 24 28 31 32 29 30 30 29 30 26 45 51 50 50 38 39 36 32 24 23 31 33 33 32
87 100 100 88 74 33 60 68 92 86 40 34 27 21 25 26 25 23 20 20 23 31 33 29 32 33 31 33 29 28 40 58 62 74 60 39 43 39 30 25 26 29 30 28 31
84 98 99 93 74 65 66 88 88 60 54 29 23 24 29 27 26 23 24 25 22 26 43 41 40 35 34 31 34 36 38 59 48 79 60 44 46 36 31 25 23 21 22 28 33
79 95 100 84 74 80 88 93 79 64 35 30 22 31 31 26 23 25 28 29 23 24 31 52 46 38 37 36 34 33 42 37 64 67 83 51 27 30 31 29 33 32 30 32 31
84 98 96 80 90 75 96 75 66 48 41 36 32 30 36 29 30 28 28 24 23 23 22 37 53 50 42 30 28 32 29 45 56 48 48 39 35 48 36 33 37 42 38 43 44
89 98 78 93 99 88 88 76 58 42 44 49 43 34 31 31 28 31 27 20 21 20 30 42 49 49 50 46 37 34 32 31 40 55 55 66 42 28 38 37 43 44 35 45 53
96 86 72 92 92 86 83 63 53 49 46 49 48 49 34 33 32 31 29 22 22 33 37 40 59 64 42 34 37 42 44 42 64 37 57 73 46 26 34 35 38 36 38 40 40
85 75 81 87 92 90 69 60 59 51 49 47 47 42 27 30 30 31 28 31 33 33 39 42 54 67 53 39 40 42 38 33 50 59 54 68 52 24 21 25 28 33 35 39 38
74 90 100 100 75 61 69 72 73 50 48 48 51 47 46 31 28 32 39 38 37 34 28 30 46 52 61 41 33 34 32 28 39 69 53 56 38 30 27 26 20 23 26 37 43
92 71 76 94 86 69 57 63 70 66 43 44 49 48 52 38 31 38 47 42 39 31 33 38 41 36 34 31 31 29 29 29 32 39 47 40 43 32 29 23 24 18 21 28 46
82 75 70 77 68 74 60 60 60 52 45 41 54 52 49 42 34 36 49 45 39 38 34 40 42 35 39 39 34 33 29 30 31 28 32 31 32 37 29 25 26 23 25 28 30
84 76 63 63 73 80 73 56 52 43 40 33 42 47 53 43 27 24 27 31 38 43 48 49 58 66 55 46 41 59 39 33 29 29 30 36 34 31 41 36 35 34 32 34 35

GFSSW_850_rhum_051.txt.gz
RH
33 25 19 21 22 19 18 17 17 18 20 22 21 20 18 17 14 11 16 18 12 10 10 11 13 20 23 20 18 17 26 25 19 21 30 64 63 56 54 61 63 81 75 85 100
54 38 27 20 23 21 19 18 18 19 20 23 22 21 20 17 12 21 20 20 14 14 15 14 13 19 21 19 17 20 24 20 16 18 47 65 58 53 54 83 99 98 98 98 100
77 65 42 28 21 22 20 19 19 20 21 24 23 22 21 18 13 23 20 18 21 13 14 12 14 17 20 20 18 17 19 15 13 18 40 58 55 53 55 60 95 98 99 99 99
90 83 69 44 26 23 21 20 20 21 23 25 24 24 22 18 16 26 22 20 20 15 12 13 16 22 23 20 14 14 13 12 12 32 44 55 42 45 49 46 61 92 98 97 89
89 89 84 70 42 26 23 21 21 22 26 27 26 27 23 22 12 11 22 20 18 16 11 14 22 23 22 19 16 16 17 19 16 36 36 41 44 44 73 84 83 98 98 92 76
84 85 90 86 61 34 26 22 23 23 28 30 28 30 26 37 11 18 25 25 20 15 14 17 18 20 23 20 22 21 25 39 42 42 39 39 44 38 90 86 85 72 93 74 73
74 77 87 90 78 46 28 24 23 25 31 32 30 31 28 13 13 24 26 27 22 18 17 19 20 22 22 22 19 22 17 37 42 41 37 33 36 45 78 83 76 91 100 84 67
75 85 70 84 86 62 29 25 24 26 34 33 32 30 22 10 9 20 22 23 25 26 24 21 23 23 24 22 22 26 18 32 32 38 36 29 35 50 69 75 86 96 94 98 72
81 80 82 73 88 73 36 26 25 26 34 35 34 31 24 18 17 16 20 22 26 24 24 26 24 24 25 31 36 32 22 25 26 32 40 36 30 40 62 72 74 73 85 95 75
61 87 84 81 83 79 46 25 25 28 43 53 47 44 15 19 24 23 19 24 22 21 24 27 25 34 42 40 44 35 28 22 22 23 33 39 30 51 52 56 61 62 66 85 78
32 78 93 87 79 84 51 26 34 60 67 42 27 20 13 19 22 22 16 18 20 25 32 38 38 40 37 37 35 34 29 25 21 20 28 37 34 30 58 65 67 72 74 73 75
22 90 100 90 83 88 52 30 44 62 62 38 32 43 34 41 42 22 22 19 23 32 41 37 40 32 33 34 30 28 30 30 27 24 28 35 38 28 61 69 66 65 71 74 71
11 84 100 96 94 89 51 44 67 64 59 44 39 40 28 28 36 26 21 19 30 44 43 42 28 30 31 31 30 30 31 32 32 29 23 27 30 29 48 58 62 63 58 64 64
7 69 98 100 99 81 47 74 46 49 66 48 61 43 34 26 27 22 23 18 32 34 46 38 31 29 34 33 31 36 30 32 31 31 29 24 29 28 35 52 56 58 58 54 56
13 63 98 100 84 51 71 73 62 64 42 25 47 35 32 22 20 20 20 21 26 37 36 35 36 34 34 31 29 36 31 34 31 35 37 35 39 33 30 45 47 53 52 49 46
31 72 98 100 100 51 75 66 67 72 57 36 36 41 26 19 18 21 21 19 18 36 31 31 33 30 32 29 30 28 30 41 50 47 50 38 40 41 32 27 28 40 47 47 44
50 93 98 100 97 81 50 69 89 89 34 39 40 29 27 24 19 22 22 26 28 38 37 31 31 32 33 31 32 33 43 55 62 69 57 41 46 42 30 29 25 32 39 40 42
66 94 98 98 100 80 65 90 95 60 60 43 26 29 26 28 26 29 26 28 23 28 44 43 46 34 31 33 37 38 40 59 45 68 55 46 55 38 30 32 26 24 30 35 35
88 93 97 97 100 78 92 97 77 61 46 34 26 29 31 29 28 26 30 29 26 27 32 46 41 44 37 36 31 36 45 37 65 71 82 54 39 31 34 32 38 31 30 34 34
98 94 93 88 100 99 98 71 67 54 49 50 34 32 39 35 32 30 34 26 25 26 28 40 38 47 45 37 35 33 34 43 55 49 55 42 40 45 37 32 34 51 38 29 30
98 96 81 98 99 98 92 74 60 47 45 55 54 40 35 34 33 36 31 23 25 27 26 43 37 40 42 41 34 37 37 36 46 55 56 65 48 29 38 34 35 36 38 41 38
98 94 70 85 99 85 83 64 52 50 45 51 52 57 47 35 36 34 33 26 18 33 34 40 51 58 43 34 35 35 39 45 66 43 61 74 49 26 30 37 37 33 30 30 37
89 81 94 81 91 91 68 64 62 54 56 53 53 51 48 35 34 36 35 26 30 35 43 45 54 60 44 38 46 49 47 44 53 61 59 69 53 27 27 27 27 34 31 34 40
76 94 96 98 73 66 73 73 72 53 58 55 55 50 48 43 38 36 35 40 36 34 29 34 55 49 56 41 38 41 37 38 47 72 53 60 40 30 26 30 26 20 25 33 41
77 74 71 89 87 78 63 68 74 65 56 46 55 54 55 55 34 35 47 44 40 40 39 40 45 43 40 32 30 28 30 41 41 42 48 40 46 37 35 28 25 23 23 24 29
70 88 77 87 67 72 68 67 69 64 56 56 52 52 48 57 46 36 48 46 43 39 40 42 46 34 46 40 37 35 33 33 34 35 42 38 37 31 32 33 35 34 31 35 36
72 79 85 66 74 79 70 62 61 59 56 49 44 45 50 56 45 37 31 38 37 46 48 46 59 59 49 48 43 58 46 37 32 31 33 40 35 32 41 46 45 41 39 41 41

GFSSW_850_rhum_054.txt.gz
RH
52 42 34 27 20 21 22 20 18 18 18 18 18 19 18 16 13 11 19 19 15 10 12 11 14 18 23 20 21 18 28 28 20 18 22 66 58 61 59 70 86 85 81 86 100
81 72 58 44 31 22 23 21 20 19 19 19 20 21 19 17 12 19 21 21 21 15 19 17 13 20 22 21 19 22 30 24 18 16 28 56 58 53 60 92 99 99 95 92 100
94 90 81 72 52 34 24 23 21 20 20 20 21 22 21 18 13 22 22 21 22 16 15 13 13 18 20 21 20 20 23 18 15 13 28 59 63 52 63 77 90 98 99 100 97
98 94 90 86 76 55 32 24 22 21 22 23 23 23 23 19 12 28 22 22 20 18 16 12 14 21 24 22 17 18 16 14 13 16 51 64 46 53 53 52 64 98 98 98 93
89 82 94 88 87 77 50 27 24 22 23 25 26 26 25 23 13 10 18 23 20 19 15 15 22 23 23 22 19 16 18 21 24 31 42 42 48 50 96 81 87 100 99 78 94
92 88 76 90 85 86 71 37 26 23 24 27 29 29 32 35 11 10 22 26 23 17 15 18 19 21 23 24 22 21 25 40 45 44 42 45 50 47 96 100 100 97 76 69 66
86 84 89 82 78 88 84 57 30 24 24 27 34 33 33 15 11 22 22 26 26 19 17 17 20 22 23 25 21 23 20 37 42 45 44 38 52 53 87 99 98 62 76 74 77
72 79 82 93 84 71 87 73 37 26 24 29 35 38 27 13 10 20 23 24 26 27 25 22 22 25 26 24 25 27 19 37 35 40 44 32 38 69 100 99 99 85 76 75 62
27 62 88 96 95 79 89 80 45 26 25 30 38 42 24 18 15 10 18 20 25 27 23 27 26 26 27 33 36 32 26 25 34 38 40 36 31 65 100 97 99 100 71 65 72
9 33 84 84 98 97 76 87 46 26 30 43 61 54 24 18 28 24 17 20 25 23 28 28 28 37 44 43 42 38 37 32 26 31 36 44 44 62 89 84 91 94 82 64 68
11 17 54 76 100 100 89 85 32 54 75 36 35 27 14 19 23 22 18 20 23 24 33 39 40 42 38 39 35 35 34 32 25 20 29 39 40 61 70 75 74 83 87 86 67
9 21 36 81 100 100 99 88 42 63 71 35 34 45 39 41 43 27 24 21 23 31 40 38 45 36 34 36 32 32 32 33 27 27 28 32 35 36 62 64 65 71 80 77 72
8 18 66 91 100 99 99 87 51 80 74 43 30 36 30 30 35 27 24 19 28 35 44 46 32 32 34 31 29 30 31 33 32 30 24 28 28 34 46 66 71 74 64 69 64
31 16 74 97 95 98 93 70 76 70 67 45 55 47 43 27 35 22 23 21 34 33 46 42 34 30 34 34 31 32 30 33 36 35 36 27 32 28 38 65 69 67 70 65 61
83 36 78 97 87 78 72 76 60 76 45 25 57 43 39 31 22 23 23 22 37 38 38 35 37 36 36 34 32 33 33 34 35 38 40 37 42 35 31 44 62 67 63 60 55
99 47 85 91 99 75 78 69 72 71 60 28 44 47 46 25 21 25 25 23 22 38 36 33 34 32 30 32 30 31 37 42 49 49 51 39 41 42 36 33 44 50 60 58 56
99 80 87 92 97 87 90 83 93 86 33 36 44 35 33 28 22 25 30 28 34 43 42 32 32 31 32 32 33 34 42 54 62 67 56 43 47 43 31 28 28 36 46 51 52
99 93 79 95 100 99 98 95 93 62 57 44 32 36 33 25 24 26 29 34 25 30 46 45 46 35 32 33 35 37 40 60 45 65 49 46 49 37 30 33 30 29 24 34 48
94 96 89 92 98 99 90 96 76 65 49 41 28 33 30 28 25 28 33 34 30 31 33 47 38 40 37 36 32 42 45 40 64 71 81 53 41 27 33 32 37 34 34 31 34
92 99 88 91 99 100 98 79 67 54 52 52 42 31 37 36 33 32 37 30 27 30 27 36 35 44 40 37 35 32 39 46 58 51 55 46 40 40 31 35 36 41 36 39 40
99 97 78 93 96 98 91 77 61 47 50 56 62 52 35 39 38 38 35 25 27 30 29 41 33 36 41 41 36 44 42 45 46 57 55 64 48 34 27 34 33 35 34 33 33
96 91 66 77 97 83 85 70 54 51 50 53 54 60 51 38 39 37 36 27 23 32 32 40 44 54 45 36 34 36 42 46 66 47 64 75 56 28 27 29 33 30 30 32 35
95 76 99 70 89 89 70 66 62 58 59 54 57 54 51 40 33 39 37 25 25 33 38 45 47 50 42 38 44 45 48 47 56 62 62 71 54 30 31 30 26 30 26 28 32
99 92 98 99 68 68 72 71 70 58 57 60 59 51 49 49 46 31 38 37 35 30 29 32 54 43 44 39 40 51 49 51 51 74 58 62 42 34 31 32 29 23 21 23 29
99 74 74 90 80 82 60 61 73 68 58 56 62 59 55 55 48 38 43 46 42 43 41 39 43 51 40 34 36 35 33 48 47 46 50 42 50 38 36 38 30 26 23 25 25
98 81 71 87 66 74 74 64 68 65 65 63 64 53 56 62 50 48 46 46 45 48 50 48 47 39 44 41 41 38 35 46 41 38 44 40 42 38 33 37 41 40 40 50 50
91 67 64 64 72 74 70 66 64 61 60 52 52 52 55 56 46 44 45 43 43 46 55 50 61 60 50 49 44 60 46 40 37 38 40 48 41 38 44 47 49 49 52 55 54

GFSSW_850_rhum_060.txt.gz
RH
100 99 97 91 82 77 70 55 35 21 21 19 18 18 17 17 14 12 20 22 15 10 18 18 21 28 24 16 17 16 13 13 13 13 16 27 31 58 56 49 61 70 64 79 96
99 99 100 100 98 94 88 81 64 37 22 20 19 18 18 18 14 12 23 21 19 11 16 18 18 22 19 18 15 14 14 12 10 10 12 14 30 40 47 48 54 86 97 94 99
97 99 96 100 100 99 92 85 85 66 35 22 20 18 19 18 20 22 22 22 22 16 20 22 18 20 17 17 16 14 13 12 12 13 13 13 25 29 35 31 41 60 100 100 100
99 99 98 99 100 91 88 86 80 82 60 30 21 20 21 20 16 26 25 24 22 23 19 20 17 16 16 16 16 16 13 14 14 15 16 17 24 33 36 44 58 70 99 99 100
38 78 98 100 100 96 78 76 80 79 77 48 26 22 22 37 24 14 25 23 22 22 23 17 14 17 16 15 18 17 14 16 18 26 24 33 30 35 44 62 75 92 98 99 99
11 34 53 85 100 100 90 84 72 67 86 69 36 26 32 32 17 12 12 25 22 22 23 18 20 22 20 19 19 17 17 18 28 28 33 32 35 39 51 73 85 98 99 99 99
6 9 40 52 74 85 97 88 79 65 78 82 56 31 36 34 18 15 14 28 23 26 20 21 21 23 23 18 22 20 20 17 27 29 31 34 33 31 49 76 90 94 97 98 99
5 5 8 18 47 83 93 93 79 72 69 85 72 33 47 19 16 13 15 32 25 23 23 22 24 26 24 24 20 18 18 17 25 28 35 33 26 29 54 62 68 89 86 90 98
12 6 5 8 22 40 92 95 98 75 72 74 64 39 38 26 20 16 16 32 31 23 26 26 27 26 26 21 18 16 18 16 27 28 28 30 24 34 58 56 48 62 68 77 85
82 17 8 6 14 38 42 91 94 78 65 64 58 62 30 23 27 26 12 28 28 32 31 29 26 24 22 21 20 16 20 17 17 23 28 25 21 27 54 52 47 47 54 68 69
100 78 23 13 12 34 80 89 83 74 86 45 46 38 29 32 29 34 23 23 23 27 25 28 25 26 19 19 26 20 20 18 17 18 26 23 21 17 40 58 48 44 46 54 61
98 100 81 38 23 32 87 93 79 78 64 58 39 48 41 44 39 36 28 24 24 26 25 29 27 20 22 24 27 24 19 18 20 20 23 19 18 16 25 46 46 44 48 46 52
98 100 99 74 51 49 96 92 90 92 67 52 51 43 36 40 34 27 30 20 22 24 26 24 22 24 26 26 28 25 23 22 21 21 20 20 17 19 28 41 51 56 50 42 43
96 98 100 79 56 86 93 81 85 75 62 35 47 45 42 34 34 25 30 20 21 24 22 23 20 26 25 26 23 26 19 21 22 21 23 20 24 18 18 28 36 40 48 46 42
93 92 99 85 97 99 96 62 78 86 31 24 45 47 45 26 23 25 25 23 20 22 25 23 26 27 26 22 22 22 23 24 23 23 27 24 23 17 20 19 23 31 37 43 45
98 88 95 88 99 90 92 83 85 67 41 26 48 50 45 35 26 27 26 24 16 22 23 19 25 23 21 23 23 23 27 28 28 28 33 24 23 18 15 15 16 17 27 33 41
87 91 99 98 88 89 88 97 73 54 24 24 48 48 35 31 28 24 24 27 24 30 30 24 23 22 25 26 27 26 26 35 42 39 34 28 28 19 16 17 18 19 21 24 34
75 96 92 97 99 96 99 98 59 21 28 30 36 41 40 24 24 24 25 25 18 19 21 26 30 23 24 24 24 27 25 31 38 36 30 30 26 17 18 18 22 26 28 29 28
71 98 94 94 90 99 99 88 32 30 28 29 32 47 40 24 22 26 26 23 20 19 23 25 22 23 25 25 23 31 32 25 37 51 44 25 20 16 16 17 22 21 24 27 28
75 100 94 90 77 100 92 58 33 29 32 43 31 35 48 31 27 25 27 21 21 18 15 23 26 26 32 29 30 29 24 34 33 42 39 27 25 18 17 20 16 16 18 22 32
83 99 91 79 82 100 88 53 37 34 41 46 38 44 31 31 25 27 27 22 19 23 18 20 22 39 34 32 26 32 32 31 28 31 37 36 25 16 16 17 22 22 22 24 29
99 98 87 72 97 91 78 47 34 34 45 45 48 50 48 30 26 21 23 20 20 19 26 21 22 30 27 29 27 23 26 28 34 34 37 40 30 14 16 19 19 20 23 28 34
97 99 86 86 92 91 62 52 37 39 36 46 48 45 48 46 33 25 22 20 22 20 22 24 27 33 30 31 32 28 26 24 28 33 32 48 30 18 20 20 20 19 20 26 32
98 100 100 100 59 62 63 51 49 39 38 42 45 44 47 44 40 33 30 33 29 22 22 26 23 27 32 23 19 28 26 25 27 36 28 30 24 18 18 17 16 20 24 24 26
99 87 91 94 79 50 50 45 49 49 42 47 46 47 43 46 46 45 34 41 34 36 26 26 27 25 20 18 16 18 18 21 24 24 25 24 20 22 19 18 18 27 30 37 42
99 59 77 56 64 59 53 55 43 40 40 46 45 44 46 51 46 50 39 39 36 41 32 32 28 28 29 22 22 22 20 18 21 20 26 24 23 18 19 23 26 33 39 46 57
99 60 56 49 60 63 56 54 43 37 39 37 43 50 56 45 42 43 42 40 39 42 41 37 33 38 35 31 32 51 32 22 23 26 26 26 22 17 22 24 28 39 46 54 65

GFSSW_850_rhum_066.txt.gz
RH
70 90 97 94 94 96 98 94 80 79 69 65 60 50 31 21 18 16 32 28 29 16 14 26 22 23 18 15 13 10 12 12 11 13 21 23 20 19 25 20 40 79 94 94 86
22 59 76 83 86 92 97 95 88 75 75 64 58 58 48 30 20 16 29 25 22 16 13 26 19 17 16 14 11 9 12 11 10 8 9 10 12 12 25 44 53 32 71 98 99
10 14 36 73 77 85 84 78 82 65 60 52 52 51 46 39 31 30 16 17 20 15 13 22 16 13 13 12 11 10 11 9 8 9 10 10 10 14 14 52 52 51 68 99 100
7 7 10 22 50 60 66 76 74 72 50 48 41 46 40 42 29 25 18 18 17 16 13 23 17 14 12 13 10 11 9 8 8 9 10 11 11 12 26 41 34 49 98 95 96
11 8 7 6 8 21 37 40 64 58 44 51 53 42 36 44 33 26 25 19 22 19 24 22 16 13 12 10 10 10 10 9 9 9 9 12 15 14 49 59 72 91 98 94 95
46 22 9 6 6 7 12 18 23 33 34 38 54 59 75 52 21 21 26 25 20 24 24 22 16 12 10 11 13 10 11 11 10 10 10 13 16 34 57 65 78 83 93 95 99
87 74 44 17 6 5 6 8 10 18 31 33 50 72 86 45 13 25 26 27 29 27 24 19 15 11 15 15 13 12 13 11 10 11 12 12 17 44 48 67 73 80 82 84 89
100 99 96 52 13 7 4 5 6 9 12 25 65 78 73 29 26 28 26 25 23 26 24 18 14 16 17 16 15 14 14 16 11 12 14 14 24 44 38 51 56 61 68 73 78
98 99 99 99 65 16 6 4 4 8 14 42 63 77 51 25 32 26 22 22 22 26 22 20 18 18 18 19 20 15 17 14 13 14 15 20 37 56 35 48 57 47 54 54 64
84 98 99 99 99 63 12 5 6 30 69 77 85 64 45 25 20 24 24 22 19 26 23 22 20 20 19 20 26 19 17 16 13 17 16 15 54 59 44 48 51 38 48 50 58
66 85 95 98 99 96 29 18 64 98 100 59 42 39 19 23 20 21 20 22 20 24 26 21 23 24 20 19 18 16 16 17 16 15 17 16 18 38 46 35 35 33 42 49 44
55 70 86 95 98 99 63 87 33 60 55 50 56 47 38 29 28 22 21 19 20 26 22 23 28 18 16 15 16 18 18 16 14 15 15 14 16 27 30 21 21 28 33 39 42
66 51 80 90 91 86 82 62 51 62 53 32 25 21 26 30 26 24 20 17 19 24 23 27 21 17 16 17 18 18 16 20 24 17 15 17 17 17 15 19 19 24 26 38 39
78 60 63 100 86 71 74 54 61 71 58 16 15 21 18 22 20 24 21 16 17 22 20 21 16 17 17 20 17 21 14 18 17 19 22 21 34 26 19 16 21 21 25 28 35
77 68 63 99 76 85 62 61 64 80 40 8 11 25 23 22 14 18 22 19 18 19 18 20 18 18 21 17 16 20 19 21 18 19 21 23 35 24 19 17 16 21 26 30 32
88 75 66 100 88 62 80 79 72 69 31 13 25 28 25 21 18 12 21 21 17 17 16 16 14 14 16 15 16 15 18 20 21 22 34 22 28 29 22 23 14 20 26 31 32
86 78 73 98 91 77 86 85 78 46 10 10 25 26 26 26 22 16 19 25 23 26 26 18 17 14 13 18 16 17 22 36 43 43 42 22 25 24 27 20 16 12 24 29 28
81 86 77 99 83 85 85 99 68 23 19 13 11 24 30 26 27 24 18 22 21 17 22 27 29 17 15 18 19 22 22 38 58 83 62 43 28 17 16 13 12 13 13 18 24
82 95 89 87 83 86 100 97 62 28 14 16 18 27 35 25 23 26 24 21 19 18 24 26 23 14 15 16 16 23 30 21 58 59 71 52 25 14 12 11 11 13 15 16 17
98 99 94 81 85 99 99 84 43 31 20 14 17 22 32 28 27 25 24 21 19 17 18 20 29 16 16 15 15 18 19 31 34 74 45 22 20 21 17 14 13 12 14 16 20
100 99 93 84 93 99 97 73 49 28 23 19 17 16 14 22 23 23 24 21 22 20 19 19 24 23 17 19 20 20 27 31 24 27 46 52 35 32 21 14 14 15 14 16 18
100 98 92 85 98 88 86 64 44 25 27 28 23 15 17 18 23 23 23 22 16 20 23 20 24 33 22 16 16 16 22 28 40 39 40 52 36 27 24 13 14 14 15 15 17
97 97 93 83 95 93 68 51 48 35 27 26 28 20 24 30 26 28 23 22 19 23 28 24 27 33 35 23 19 19 18 21 24 28 36 62 37 15 14 14 13 14 14 15 17
99 99 99 99 73 68 66 55 52 41 30 26 26 24 29 36 28 36 28 26 27 28 24 31 24 27 39 33 23 23 19 24 27 48 39 37 31 23 17 18 14 14 14 14 17
100 93 86 95 90 68 52 41 46 41 31 31 34 30 34 35 35 33 30 28 28 27 31 29 32 26 20 19 19 21 20 19 19 24 37 29 22 18 15 14 15 18 18 16 16
99 63 66 47 76 68 61 52 40 33 30 34 37 32 43 41 32 27 25 32 39 30 33 32 34 30 32 21 20 21 17 18 17 17 18 19 21 14 12 11 12 16 19 20 21
99 63 60 61 72 82 69 57 41 31 26 24 26 33 45 50 63 46 47 39 39 40 37 37 40 37 43 25 24 34 23 17 16 16 16 20 17 13 13 13 14 14 16 20 31

GFSSW_850_rhum_072.txt.gz
RH
6 7 5 6 8 14 30 45 37 25 30 21 19 19 28 31 27 23 19 20 19 25 22 12 10 11 14 18 19 20 28 31 26 18 16 13 21 34 50 48 69 67 65 63 64
17 9 6 5 4 5 8 12 19 16 8 12 10 11 15 24 16 15 21 12 23 24 24 17 18 24 24 22 18 21 29 25 18 14 15 15 23 28 56 80 81 92 75 69 77
39 20 12 8 6 4 5 6 6 5 7 9 13 8 11 21 16 15 23 20 16 23 22 19 22 29 25 23 21 20 26 19 17 14 12 13 44 38 66 88 77 67 82 94 98
83 55 46 15 10 7 6 4 4 4 6 9 12 10 13 21 22 29 24 25 23 19 21 16 16 26 21 21 17 18 16 15 14 13 11 12 42 57 60 49 47 47 65 92 89
99 94 87 66 37 11 7 5 4 4 5 6 14 26 28 40 21 9 16 12 25 22 20 16 18 24 26 20 18 18 16 14 15 15 12 15 48 61 61 54 74 83 88 93 98
82 99 100 90 67 38 10 7 6 4 5 6 16 71 91 85 6 11 20 21 29 24 21 20 15 18 24 21 20 16 19 20 19 16 14 22 56 47 46 55 77 87 84 86 86
53 78 82 100 96 62 20 10 6 5 4 6 20 78 99 8 3 6 31 31 32 32 29 20 21 25 23 25 19 20 25 24 20 17 17 21 37 56 42 54 76 74 79 82 84
42 57 77 85 85 90 38 12 9 7 5 6 29 80 65 2 6 3 10 29 30 29 30 27 25 26 26 23 20 25 26 29 20 17 16 17 25 47 48 56 76 83 82 63 80
69 57 54 66 79 82 85 14 9 9 5 17 36 75 64 24 24 22 17 15 25 28 27 26 28 30 25 25 33 32 37 32 28 19 19 21 32 49 63 67 76 79 72 62 82
74 79 59 50 52 80 59 21 7 8 7 45 92 87 36 15 29 30 24 18 24 26 26 26 27 30 33 37 42 42 36 32 32 23 20 30 39 55 62 66 79 76 80 79 82
54 85 88 71 58 75 62 31 35 72 86 58 82 62 19 24 29 25 26 27 28 27 34 30 37 39 33 33 28 31 32 34 27 20 22 29 43 54 56 61 68 72 76 78 77
81 49 88 84 70 55 66 52 54 89 83 45 54 74 52 39 60 19 27 29 29 35 36 37 41 30 29 30 31 31 34 34 26 21 21 21 22 50 60 56 61 65 66 60 81
88 87 56 74 75 48 60 69 95 99 95 64 44 44 34 40 66 34 30 26 29 35 38 41 35 27 29 30 31 30 33 32 28 23 25 23 29 52 45 51 56 58 42 57 72
84 84 86 58 61 74 82 92 91 95 96 52 48 31 41 40 47 26 11 27 29 32 30 38 31 32 32 32 28 35 25 25 25 31 38 25 42 45 42 46 49 54 51 52 74
89 85 81 84 58 84 84 74 71 82 29 17 26 15 30 37 24 34 20 27 33 29 30 36 36 36 36 31 26 31 27 27 27 32 32 33 46 42 36 38 41 48 55 57 61
86 86 84 96 83 32 53 72 75 87 75 33 22 32 38 33 22 23 37 29 27 27 26 27 23 28 29 25 25 24 26 28 35 38 49 36 47 49 44 34 33 44 50 56 66
91 90 83 89 84 67 72 92 89 92 22 19 31 34 31 33 28 24 32 35 38 39 37 26 26 24 21 27 25 26 32 48 52 64 61 44 51 42 29 32 29 42 48 56 66
94 93 90 82 74 74 94 100 97 50 44 24 26 25 42 33 29 28 32 31 30 33 36 38 41 25 23 24 27 30 34 57 53 68 63 58 52 41 28 25 22 28 44 53 65
96 99 99 78 75 85 98 94 71 48 39 40 30 30 30 35 35 35 38 35 27 30 40 38 36 23 20 20 21 29 39 34 71 74 82 65 56 35 25 23 22 24 38 48 55
99 100 100 80 83 95 98 83 63 39 34 40 52 32 34 48 49 42 42 32 31 27 30 32 38 24 22 21 21 28 31 57 65 79 83 67 60 50 29 24 20 29 43 40 47
100 100 98 92 97 100 95 80 63 51 49 45 45 45 42 45 42 47 47 34 28 32 30 32 36 37 27 29 31 31 33 42 53 68 80 74 57 43 38 26 23 23 26 34 37
100 100 99 89 99 95 88 76 59 54 52 54 49 45 47 44 50 51 46 38 31 25 36 33 41 48 36 29 27 29 28 37 69 73 72 70 55 30 35 23 24 24 22 22 23
99 100 100 84 95 93 69 63 64 60 53 53 50 44 35 42 57 48 41 44 34 34 32 36 48 54 38 31 29 32 29 30 46 58 65 72 59 30 32 28 22 23 20 18 18
100 99 100 100 81 70 86 75 68 55 57 54 56 50 51 49 41 53 49 52 59 39 30 29 52 36 42 42 39 41 30 26 38 67 58 63 45 35 29 28 22 20 18 19 18
100 98 91 97 95 76 68 65 71 74 58 58 65 65 64 61 55 57 74 71 59 43 51 41 53 43 40 39 40 40 37 33 32 40 47 42 44 34 32 31 24 17 16 19 22
99 99 97 76 86 87 78 84 67 62 55 67 70 57 57 58 52 57 73 83 78 69 57 46 52 51 58 44 41 45 41 35 36 31 39 40 43 32 25 24 24 20 17 18 18
100 95 76 80 95 96 82 73 70 56 54 52 53 58 58 53 44 53 65 70 78 85 74 51 56 63 64 45 46 65 55 48 43 37 31 37 36 27 26 29 23 19 18 16 20